Location: Ferris
(32.5340°N, 96.6656°W)
Time: 07:03:14
(UTC+00:00)

Daily predictions for brighter satellites

Satellite Brightness Start Highest point End
(mag) Time Altitude Azimuth Time Altitude Azimuth Time Altitude Azimuth
Cosmos 1812 3.1 12:03:54 10° SSE 12:06:10 37° E 12:08:27 10° NNE
IUS-17 SRM-1 4.4 12:04:37 21° WSW 12:07:10 56° S 12:22:14 10° ESE
Cosmos 1025 Rocket 3.0 12:04:12 10° N 12:08:34 89° E 12:12:53 10° S
Cosmos 1777 Rocket 4.4 12:06:08 10° SW 12:10:56 39° WNW 12:15:46 10° N
Cosmos 2297 Rocket 3.0 12:09:41 15° NW 12:13:13 28° WSW 12:17:57 10° SSW
ISS -3.4 12:13:12 10° SW 12:16:31 65° SE 12:19:49 10° NE
OAO 2 Rocket 3.5 12:13:18 19° W 12:16:57 65° SSW 12:22:07 10° ESE
Cosmos 1300 Rocket 3.7 12:12:41 10° S 12:17:03 81° E 12:21:27 10° N
COSMOS 2455 3.6 12:12:53 13° WSW 12:17:20 30° WNW 12:22:33 10° N
Cosmos 2208 Rocket 4.0 12:12:01 10° NNW 12:17:26 76° WSW 12:22:49 10° S
Cosmos 2084 3.3 12:15:33 12° NW 12:19:12 58° WSW 12:23:08 10° SSE
Cosmos 2219 4.5 12:19:31 10° N 12:24:56 43° ENE 12:30:16 10° SE
Cosmos 1674 Rocket 4.0 12:23:14 10° NNW 12:27:21 39° W 12:31:25 10° SSW
IGS 5A 3.4 12:25:03 10° N 12:28:55 53° WNW 12:32:47 10° SSW
MOS 1 Rocket 3.8 12:25:17 10° NNE 12:29:36 61° E 12:34:06 10° S
Cosmos 773 Rocket 4.2 12:25:29 10° NNW 12:30:31 50° WSW 12:35:29 10° S
CBERS-1 4.2 12:27:22 10° NNE 12:32:29 81° ESE 12:37:36 10° S
Cosmos 1869 2.9 12:31:10 10° S 12:34:43 85° W 12:38:16 10° N
COSMO-SKYMED 1 2.7 12:32:29 10° S 12:36:24 44° W 12:40:20 10° NNW
Cosmos 1354 Rocket 4.4 12:32:04 10° SW 12:36:58 41° WNW 12:41:54 10° N
Helios 1A Rocket 3.0 12:37:14 10° SSE 12:40:27 58° ENE 12:43:40 10° N
Cosmos 2263 Rocket 2.2 12:40:00 10° NNW 12:45:37 72° WSW 12:51:12 10° SSE
Cosmos 1898 Rocket 4.2 12:41:21 10° S 12:46:32 63° ESE 12:51:46 10° NNE
Cosmos 2369 4.1 12:41:41 10° SW 12:47:02 42° WNW 12:52:23 10° N
Cosmos 372 Rocket 3.9 12:47:02 10° SSW 12:52:05 85° WNW 12:57:12 10° NNE
